Location: Newark
(37.8333°N, 119.5000°W)
Time: 10:12:33
(UTC+00:00)

Tiros 1 despin weight - Pass Details

Date: 19 August 2019
Orbit: 595 x 642 km, 48.2° (Epoch: 14 September)

Event Time Altitude Azimuth Distance (km) Brightness Sun altitude
Rises 16:01:41 0° 290° (WNW) 2,916 ? 31.3°
Reaches altitude 10° 16:04:34 10° 272° (W) 2,013 ? 31.9°
Maximum altitude 16:07:47 19° 228° (SW) 1,529 ? 32.5°
Drops below altitude 10° 16:10:59 10° 184° (S) 2,017 ? 33.2°
Sets 16:13:54 0° 166° (SSE) 2,925 ? 33.7°
